STARLINK-34660

Last updated on Sat Aug 16 2025 00:02:05 GMT+0000 (Coordinated Universal Time)

1 64800U 25150L 25227.58336806 .00063099 00000+0 14335-2 0 9992 2 64800 70.0001 315.4533 0003599 271.7086 15.0481 15.42690398 6089
UTC large
Height (km)
Speed (km/s)
/
Latitude / Longitude
Inclination (degrees)
Orbital Period (minutes)
Azimuth
Elevation
Range (km)
Doppler Factor

Next 0 passes for location: London (51.5072 / 0.1276)

Sorry there are no passes over London.